Location: Cazarilh
(42.9578°N, 0.5819°E)
Time: 12:52:16
(UTC+00:00)

COSMOS 2406 - Pass Details

Date: 11 December 2019
Orbit: 844 x 863 km, 71.0° (Epoch: 27 January)

Event Time Altitude Azimuth Distance (km) Brightness Sun altitude
Rises 06:44:44 0° 339° (NNW) 3,426 5.9 -6.2°
Reaches altitude 10° 06:47:17 10° 345° (NNW) 2,483 5.3 -5.8°
Maximum altitude 06:52:49 50° 60° (ENE) 1,067 4.1 -4.9°
Drops below altitude 10° 06:58:18 10° 136° (SE) 2,460 7.2 -4.0°
Sets 07:00:48 0° 141° (SE) 3,390 7.8 -3.6°
